Regional Weather Roundup
Issued by NWS

Home | Current Version | Previous Version | Text Only | Print | Product List | Glossary Off
Versions: 1 2 3 4 5 6 7 8 9 10 11 12 13 14 15 16 17 18 19 20 21 22 23 24 25 26 27 28 29 30 31 32 33 34 35 36 37 38 39 40 41 42 43 44 45 46 47 48 49 50

000
ASUS43 KLSX 160910
RWRMO

WEATHER SUMMARY FOR MISSOURI
NATIONAL WEATHER SERVICE SPRINGFIELD MO
300 AM CST MON JAN 16 2017

NOTE: "FAIR" INDICATES FEW OR NO CLOUDS BELOW 12,000 FEET WITH NO
       SIGNIFICANT WEATHER AND/OR OBSTRUCTIONS TO VISIBILITY.
       CURRENT SKY AND/OR WEATHER CONDITIONS ARE NOT AVAILABLE FOR
       CHILLICOTHE AND FARMINGTON.

MOZ001>031-035>038-043-044-053-054-161000-
...NORTHERN AND WESTERN MISSOURI...

CITY           SKY/WX    TMP DP  RH WIND       PRES   REMARKS
KANSAS CTY INT DRZL/FOG  33  31  92 E12       30.02F VSB 1/2 WCI  24
KANSAS C DTWN  CLOUDY    33  33 100 E9        30.03F FOG     WCI  25
LEE`S SUMMIT   LGT RAIN  34 N/A N/A E9        30.03F WCI  27
ST JOSEPH      CLOUDY    33  33 100 E7        30.07S FOG     WCI  27
CHILLICOTHE      N/A     33  32  96 E5        30.12F WCI  29
KIRKSVILLE     FOG       32  31  96 E8        30.14F VSB 1/4 WCI  25

$$
MOZ066>068-077>081-088>096-101>105-161000-
...SOUTHWEST MISSOURI...

CITY           SKY/WX    TMP DP  RH WIND       PRES   REMARKS
SPRINGFIELD    CLOUDY    46  45  96 SE21      30.01F
JOPLIN         LGT RAIN  49  48  97 MISG      29.95F
BRANSON        FOG       41  41 100 SE14      30.06F VSB<1/4

$$
MOZ032>034-039>042-045>050-055>058-069>072-161000-
...CENTRAL MISSOURI...

CITY           SKY/WX    TMP DP  RH WIND       PRES   REMARKS
COLUMBIA       CLOUDY    36  36 100 E10       30.11S FOG     WCI  28
JEFFERSON CITY CLOUDY    37  36  96 E8        30.12F
ROLLA          CLOUDY    36  36 100 SE13      30.09F FOG     WCI  27
SEDALIA        LGT RAIN  37  37 100 E7        30.07F FOG
WHITEMAN AFB   RAIN      36  36 100 E6        30.04F FOG
WARRENSBURG    MIX PCPN  34  34 100 NE9       30.04F WCI  26
OSAGE BEACH    CLOUDY    39  39 100 E7        30.09F

$$
MOZ051-052-059>065-161000-
...EAST CENTRAL MISSOURI...

CITY           SKY/WX    TMP DP  RH WIND       PRES   REMARKS
ST LOUIS INTL  FOG       39  37  92 E7        30.17F VSB 1/4
SPIRIT OF STL  FOG       38  38 100 E5        30.17F VSB 3/4
ST CHARLES     FOG       37  37 100 E6        30.19F VSB 1/4

$$
MOZ072>076-082>087-097>100-106>115-161000-
...SOUTH CENTRAL AND SOUTHEAST MISSOURI...

CITY           SKY/WX    TMP DP  RH WIND       PRES   REMARKS
CAPE GIRARDEAU CLOUDY    41  40  96 N3        30.18S FOG
FARMINGTON     FOG       37  36  96 CALM      30.16F VSB 1/2
POPLAR BLUFF   FOG       42  42 100 NE6       30.16F VSB 1/4
WEST PLAINS    FOG       42  42 100 E9        30.12F VSB 1/4

$$



USA.gov is the U.S. government's official web portal to all federal, state and local government web resources and services.